| time (UTC) | temp F | wind direction | speed MPH | gust MPH | rain 1hr in | rain 24hr in | rain mn in | humidity % | barometer mb |
| 20260901072031 | 63 | 260 | 7.0 | 0.0 | 0.00 | 0.00 | 0.00 | 72 | |
| 20260901061818 | 59 | 240 | 7.0 | 0.0 | 0.00 | 0.00 | 0.00 | 77 | |
| 20260901051918 | 57 | 300 | 2.0 | 0.0 | 0.00 | 0.00 | 0.00 | 76 | |
| 20260901042118 | 57 | 250 | 7.0 | 0.0 | 0.00 | 0.00 | 0.00 | 76 | |
| 20260901031818 | 59 | 250 | 7.0 | 0.0 | 0.00 | 0.00 | 0.00 | 72 | |
| 20260901022029 | 61 | 260 | 7.0 | 0.0 | 0.00 | 0.00 | 0.00 | 67 | |
| 20260901012031 | 61 | 260 | 5.0 | 0.0 | 0.00 | 0.00 | 0.00 | 67 | |
| 20260901001818 | 61 | 280 | 9.0 | 0.0 | 0.00 | 0.00 | 0.00 | 67 | |
| 20260831231933 | 63 | 280 | 7.0 | 0.0 | 0.00 | 0.00 | 0.00 | 67 | |
| 20260831222121 | 64 | 250 | 9.0 | 0.0 | 0.00 | 0.00 | 0.00 | 63 | |
| 20260831211818 | 63 | 240 | 5.0 | 0.0 | 0.00 | 0.00 | 0.00 | 72 | |
| 20260831202029 | 64 | 270 | 7.0 | 0.0 | 0.00 | 0.00 | 0.00 | 63 | |
| 20260831192031 | 66 | 310 | 5.0 | 0.0 | 0.00 | 0.00 | 0.00 | 63 | |
| 20260831181819 | 68 | 320 | 5.0 | 0.0 | 0.00 | 0.00 | 0.00 | 60 | |
| 20260831172030 | 72 | 300 | 5.0 | 0.0 | 0.00 | 0.00 | 0.00 | 53 | |
| 20260831162121 | 73 | 270 | 12.0 | 0.0 | 0.00 | 0.00 | 0.00 | 43 | |
| 20260831151821 | 73 | 280 | 12.0 | 0.0 | 0.00 | 0.00 | 0.00 | 46 | |
| 20260831141918 | 73 | 280 | 12.0 | 0.0 | 0.00 | 0.00 | 0.00 | 49 | |
| 20260831131918 | 73 | 250 | 9.0 | 0.0 | 0.00 | 0.00 | 0.00 | 53 | |
| 20260831121820 | 72 | 290 | 14.0 | 0.0 | 0.00 | 0.00 | 0.00 | 60 | |
| 20260831111917 | 72 | 280 | 14.0 | 0.0 | 0.00 | 0.00 | 0.00 | 60 | |
| 20260831102121 | 68 | 290 | 12.0 | 0.0 | 0.00 | 0.00 | 0.00 | 72 | |
| 20260831091819 | 70 | 270 | 9.0 | 0.0 | 0.00 | 0.00 | 0.00 | 73 | |
| 20260831081920 | 64 | 260 | 5.0 | 0.0 | 0.00 | 0.00 | 0.00 | 88 |